QPF
0.02 0.02 0.03 0.02 0.01 0.01 0.02 0.04 0.04 0.05 0.05 0.06 0.06 0.06 0.06 0.06 0.05 0.05 0.07 0.09 0.08 0.07 0.06 0.05 0.06 0.06 0.07 0.07 0.08 0.10 0.10 0.08 0.07 0.07 0.06 0.05 0.04 0.03 0.04 0.04 0.04 0.04 0.05
0.02 0.02 0.02 0.02 0.02 0.01 0.02 0.04 0.04 0.04 0.04 0.05 0.05 0.05 0.07 0.07 0.07 0.07 0.06 0.06 0.06 0.07 0.06 0.06 0.06 0.07 0.10 0.08 0.07 0.10 0.10 0.09 0.10 0.08 0.09 0.08 0.08 0.06 0.04 0.03 0.03 0.04 0.06
0.01 0.02 0.02 0.03 0.04 0.03 0.02 0.02 0.03 0.03 0.04 0.05 0.06 0.07 0.07 0.08 0.08 0.06 0.04 0.03 0.02 0.03 0.04 0.04 0.05 0.07 0.07 0.07 0.08 0.09 0.10 0.09 0.10 0.09 0.09 0.09 0.08 0.08 0.07 0.04 0.04 0.05 0.06
0.00 0.01 0.02 0.02 0.03 0.03 0.04 0.03 0.03 0.03 0.04 0.05 0.05 0.06 0.06 0.04 0.05 0.05 0.04 0.03 0.02 0.02 0.02 0.03 0.05 0.06 0.07 0.08 0.06 0.06 0.08 0.09 0.08 0.10 0.08 0.07 0.09 0.10 0.09 0.08 0.07 0.07 0.07
0.00 0.00 0.01 0.01 0.01 0.01 0.02 0.02 0.02 0.02 0.03 0.02 0.03 0.04 0.04 0.04 0.04 0.05 0.05 0.05 0.04 0.03 0.03 0.03 0.04 0.05 0.05 0.06 0.06 0.06 0.06 0.06 0.05 0.06 0.07 0.07 0.07 0.07 0.07 0.08 0.08 0.09 0.07
0.00 0.00 0.01 0.01 0.01 0.00 0.01 0.01 0.01 0.02 0.03 0.02 0.01 0.02 0.03 0.04 0.04 0.04 0.04 0.03 0.03 0.05 0.05 0.05 0.04 0.03 0.04 0.04 0.05 0.06 0.06 0.05 0.05 0.05 0.06 0.06 0.06 0.06 0.05 0.06 0.07 0.09 0.09
0.00 0.00 0.00 0.01 0.01 0.01 0.01 0.01 0.01 0.02 0.01 0.01 0.01 0.01 0.03 0.04 0.04 0.04 0.04 0.04 0.04 0.04 0.05 0.06 0.04 0.03 0.03 0.03 0.04 0.04 0.04 0.05 0.06 0.06 0.05 0.06 0.05 0.04 0.05 0.06 0.06 0.06 0.08
0.01 0.01 0.01 0.00 0.01 0.01 0.01 0.01 0.01 0.01 0.01 0.01 0.01 0.01 0.02 0.03 0.03 0.04 0.03 0.03 0.03 0.02 0.04 0.04 0.03 0.03 0.02 0.02 0.04 0.04 0.04 0.05 0.06 0.05 0.05 0.05 0.05 0.04 0.04 0.04 0.04 0.04 0.06
0.01 0.01 0.02 0.01 0.01 0.01 0.00 0.00 0.01 0.00 0.01 0.01 0.01 0.01 0.02 0.03 0.03 0.03 0.02 0.03 0.04 0.03 0.03 0.03 0.03 0.03 0.03 0.04 0.04 0.05 0.05 0.07 0.07 0.06 0.05 0.05 0.04 0.04 0.03 0.02 0.03 0.03 0.05
0.01 0.01 0.02 0.02 0.01 0.01 0.00 0.00 0.00 0.01 0.02 0.03 0.03 0.01 0.02 0.02 0.03 0.03 0.03 0.03 0.03 0.05 0.07 0.05 0.05 0.04 0.04 0.04 0.04 0.05 0.06 0.05 0.05 0.06 0.07 0.05 0.04 0.04 0.04 0.03 0.03 0.04 0.04
0.01 0.01 0.01 0.02 0.02 0.01 0.00 0.00 0.01 0.02 0.05 0.07 0.07 0.04 0.02 0.01 0.02 0.02 0.02 0.02 0.03 0.05 0.09 0.08 0.05 0.04 0.03 0.03 0.03 0.04 0.04 0.04 0.04 0.05 0.06 0.05 0.05 0.06 0.06 0.06 0.05 0.04 0.04
0.00 0.01 0.01 0.01 0.01 0.01 0.01 0.01 0.02 0.02 0.04 0.03 0.03 0.02 0.01 0.01 0.01 0.02 0.02 0.02 0.02 0.03 0.04 0.04 0.02 0.02 0.02 0.03 0.03 0.03 0.04 0.04 0.05 0.05 0.06 0.06 0.05 0.05 0.05 0.06 0.06 0.05 0.04
0.01 0.01 0.01 0.02 0.02 0.04 0.06 0.05 0.02 0.01 0.01 0.01 0.01 0.00 0.01 0.01 0.01 0.02 0.02 0.02 0.02 0.02 0.02 0.03 0.03 0.03 0.03 0.03 0.04 0.04 0.03 0.03 0.04 0.06 0.06 0.05 0.05 0.05 0.05 0.05 0.04 0.04 0.03
0.01 0.01 0.01 0.02 0.03 0.03 0.05 0.07 0.05 0.01 0.01 0.01 0.00 0.01 0.01 0.01 0.02 0.02 0.01 0.01 0.02 0.02 0.03 0.03 0.04 0.04 0.03 0.03 0.03 0.03 0.03 0.03 0.03 0.05 0.06 0.06 0.06 0.05 0.06 0.06 0.05 0.04 0.04
0.00 0.00 0.00 0.01 0.02 0.02 0.02 0.03 0.03 0.01 0.01 0.01 0.01 0.01 0.02 0.02 0.02 0.02 0.02 0.02 0.02 0.03 0.04 0.04 0.04 0.04 0.03 0.02 0.02 0.02 0.02 0.03 0.03 0.04 0.04 0.05 0.06 0.06 0.06 0.05 0.04 0.04 0.04
0.00 0.00 0.00 0.01 0.01 0.01 0.01 0.01 0.01 0.01 0.01 0.01 0.01 0.02 0.03 0.02 0.02 0.02 0.02 0.03 0.03 0.04 0.05 0.05 0.05 0.04 0.03 0.03 0.02 0.02 0.04 0.05 0.05 0.06 0.06 0.06 0.06 0.05 0.04 0.03 0.04 0.05 0.05
0.01 0.01 0.01 0.01 0.01 0.01 0.00 0.00 0.01 0.01 0.02 0.02 0.02 0.03 0.03 0.04 0.04 0.03 0.03 0.02 0.02 0.02 0.03 0.03 0.04 0.04 0.06 0.04 0.03 0.03 0.03 0.04 0.05 0.06 0.06 0.06 0.05 0.05 0.05 0.05 0.04 0.04 0.04
0.01 0.01 0.01 0.01 0.02 0.02 0.01 0.01 0.02 0.02 0.03 0.02 0.02 0.04 0.04 0.04 0.04 0.03 0.03 0.03 0.03 0.03 0.03 0.04 0.04 0.05 0.05 0.04 0.03 0.03 0.04 0.06 0.06 0.06 0.06 0.07 0.07 0.06 0.05 0.05 0.04 0.03 0.03
0.01 0.01 0.01 0.03 0.02 0.02 0.01 0.01 0.02 0.03 0.03 0.03 0.04 0.04 0.04 0.03 0.03 0.03 0.03 0.03 0.03 0.04 0.04 0.04 0.04 0.04 0.04 0.04 0.03 0.02 0.04 0.05 0.06 0.06 0.06 0.06 0.07 0.08 0.07 0.05 0.04 0.04 0.04
0.01 0.02 0.03 0.03 0.02 0.01 0.01 0.02 0.02 0.03 0.03 0.02 0.03 0.03 0.03 0.03 0.03 0.03 0.03 0.03 0.04 0.04 0.05 0.04 0.04 0.04 0.04 0.04 0.04 0.03 0.04 0.05 0.05 0.06 0.06 0.06 0.06 0.07 0.05 0.04 0.04 0.03 0.04
0.01 0.02 0.01 0.01 0.01 0.02 0.02 0.03 0.04 0.04 0.04 0.04 0.04 0.04 0.04 0.04 0.03 0.04 0.03 0.03 0.04 0.04 0.05 0.05 0.04 0.03 0.03 0.04 0.04 0.04 0.05 0.04 0.05 0.05 0.05 0.04 0.03 0.02 0.02 0.03 0.04 0.03 0.04
0.02 0.01 0.01 0.02 0.02 0.03 0.04 0.05 0.04 0.04 0.04 0.04 0.04 0.04 0.04 0.04 0.04 0.04 0.04 0.04 0.04 0.04 0.05 0.05 0.04 0.03 0.03 0.03 0.03 0.03 0.05 0.05 0.04 0.04 0.04 0.04 0.03 0.02 0.02 0.02 0.02 0.03 0.03
0.01 0.01 0.01 0.01 0.02 0.03 0.04 0.05 0.04 0.04 0.05 0.04 0.04 0.04 0.04 0.05 0.05 0.04 0.03 0.04 0.04 0.04 0.05 0.06 0.07 0.06 0.04 0.03 0.03 0.02 0.03 0.04 0.04 0.03 0.02 0.03 0.04 0.03 0.02 0.03 0.02 0.02 0.02
0.02 0.01 0.01 0.02 0.03 0.04 0.04 0.04 0.05 0.06 0.06 0.04 0.04 0.04 0.03 0.04 0.05 0.05 0.03 0.03 0.03 0.03 0.03 0.03 0.04 0.04 0.03 0.02 0.02 0.02 0.02 0.03 0.03 0.03 0.03 0.03 0.02 0.02 0.01 0.02 0.02 0.02 0.02
0.02 0.01 0.01 0.01 0.02 0.03 0.04 0.04 0.05 0.05 0.06 0.05 0.04 0.04 0.04 0.04 0.05 0.04 0.03 0.03 0.02 0.02 0.02 0.02 0.01 0.01 0.01 0.01 0.01 0.01 0.01 0.02 0.01 0.01 0.01 0.02 0.03 0.03 0.03 0.03 0.03 0.03 0.03
0.02 0.02 0.01 0.01 0.01 0.04 0.06 0.04 0.05 0.05 0.06 0.05 0.05 0.04 0.03 0.03 0.03 0.04 0.04 0.05 0.05 0.04 0.03 0.03 0.01 0.01 0.00 0.00 0.01 0.01 0.01 0.01 0.01 0.01 0.01 0.02 0.03 0.04 0.04 0.04 0.05 0.05 0.05
MSLP
1009.45 1009.83 1010.02 1009.98 1009.74 1009.33 1008.85 1008.37 1007.97 1007.67 1007.47 1007.35 1007.24 1007.09 1006.85 1006.49 1006.00 1005.43 1004.81 1004.20 1003.65 1003.19 1002.87 1002.68 1002.61 1002.65 1002.76 1002.93 1003.14 1003.38 1003.66 1003.99 1004.35 1004.77 1005.21 1005.68 1006.12 1006.50 1006.77 1006.90 1006.87 1006.69 1006.39
1009.51 1010.04 1010.37 1010.44 1010.26 1009.87 1009.36 1008.83 1008.37 1008.05 1007.86 1007.80 1007.79 1007.78 1007.69 1007.46 1007.09 1006.60 1006.03 1005.44 1004.89 1004.43 1004.10 1003.90 1003.81 1003.82 1003.89 1003.99 1004.11 1004.27 1004.45 1004.68 1004.97 1005.34 1005.76 1006.21 1006.64 1007.01 1007.25 1007.35 1007.28 1007.05 1006.71
1009.40 1010.07 1010.55 1010.77 1010.69 1010.37 1009.88 1009.34 1008.85 1008.50 1008.30 1008.25 1008.30 1008.36 1008.36 1008.24 1007.97 1007.57 1007.07 1006.55 1006.05 1005.65 1005.35 1005.18 1005.10 1005.09 1005.12 1005.15 1005.16 1005.18 1005.21 1005.29 1005.45 1005.70 1006.02 1006.40 1006.79 1007.14 1007.38 1007.50 1007.46 1007.28 1006.99
1009.10 1009.90 1010.53 1010.91 1010.97 1010.77 1010.35 1009.85 1009.36 1008.99 1008.78 1008.71 1008.76 1008.84 1008.88 1008.81 1008.61 1008.28 1007.87 1007.42 1007.00 1006.67 1006.44 1006.31 1006.27 1006.26 1006.25 1006.20 1006.11 1005.99 1005.86 1005.77 1005.76 1005.85 1006.04 1006.32 1006.65 1006.97 1007.24 1007.41 1007.46 1007.39 1007.23
1008.65 1009.53 1010.30 1010.83 1011.06 1010.99 1010.69 1010.26 1009.82 1009.46 1009.23 1009.15 1009.17 1009.23 1009.27 1009.22 1009.04 1008.76 1008.40 1008.02 1007.68 1007.41 1007.25 1007.18 1007.17 1007.17 1007.13 1007.03 1006.85 1006.61 1006.35 1006.11 1005.93 1005.88 1005.94 1006.12 1006.38 1006.68 1006.97 1007.21 1007.36 1007.43 1007.43
1008.09 1009.02 1009.88 1010.54 1010.92 1011.00 1010.83 1010.51 1010.15 1009.82 1009.61 1009.51 1009.50 1009.54 1009.55 1009.49 1009.31 1009.05 1008.73 1008.39 1008.09 1007.88 1007.77 1007.74 1007.75 1007.76 1007.72 1007.59 1007.37 1007.05 1006.70 1006.35 1006.07 1005.90 1005.86 1005.95 1006.15 1006.42 1006.72 1007.01 1007.25 1007.43 1007.56
1007.49 1008.42 1009.33 1010.07 1010.57 1010.79 1010.76 1010.56 1010.29 1010.03 1009.85 1009.76 1009.75 1009.76 1009.75 1009.67 1009.49 1009.23 1008.92 1008.60 1008.33 1008.15 1008.05 1008.04 1008.07 1008.09 1008.05 1007.92 1007.69 1007.36 1006.98 1006.59 1006.26 1006.03 1005.93 1005.95 1006.10 1006.33 1006.61 1006.91 1007.19 1007.43 1007.65
1006.95 1007.83 1008.73 1009.51 1010.08 1010.39 1010.48 1010.40 1010.23 1010.06 1009.94 1009.88 1009.88 1009.90 1009.88 1009.80 1009.62 1009.37 1009.06 1008.75 1008.49 1008.30 1008.21 1008.19 1008.21 1008.24 1008.21 1008.10 1007.89 1007.60 1007.25 1006.89 1006.57 1006.34 1006.21 1006.20 1006.29 1006.47 1006.69 1006.95 1007.20 1007.45 1007.67
1006.55 1007.34 1008.19 1008.95 1009.54 1009.91 1010.08 1010.09 1010.02 1009.94 1009.89 1009.90 1009.94 1009.98 1009.99 1009.92 1009.75 1009.51 1009.22 1008.91 1008.65 1008.44 1008.33 1008.28 1008.29 1008.30 1008.27 1008.19 1008.03 1007.81 1007.53 1007.25 1006.99 1006.79 1006.67 1006.64 1006.69 1006.80 1006.95 1007.12 1007.29 1007.47 1007.64
1006.37 1007.07 1007.82 1008.51 1009.07 1009.45 1009.66 1009.74 1009.75 1009.75 1009.79 1009.85 1009.95 1010.03 1010.07 1010.04 1009.91 1009.69 1009.41 1009.11 1008.84 1008.61 1008.46 1008.37 1008.34 1008.33 1008.30 1008.23 1008.12 1007.97 1007.78 1007.59 1007.42 1007.29 1007.20 1007.17 1007.18 1007.22 1007.28 1007.34 1007.41 1007.48 1007.57
1006.51 1007.08 1007.71 1008.31 1008.79 1009.13 1009.35 1009.47 1009.53 1009.61 1009.70 1009.83 1009.97 1010.10 1010.18 1010.18 1010.08 1009.89 1009.63 1009.34 1009.06 1008.81 1008.61 1008.47 1008.39 1008.33 1008.28 1008.22 1008.14 1008.04 1007.93 1007.83 1007.73 1007.67 1007.63 1007.61 1007.59 1007.58 1007.55 1007.52 1007.49 1007.46 1007.47
1006.95 1007.41 1007.91 1008.37 1008.77 1009.05 1009.25 1009.38 1009.49 1009.60 1009.74 1009.91 1010.08 1010.23 1010.33 1010.34 1010.26 1010.09 1009.85 1009.56 1009.26 1008.99 1008.75 1008.56 1008.41 1008.30 1008.21 1008.13 1008.05 1007.98 1007.91 1007.86 1007.83 1007.82 1007.81 1007.81 1007.79 1007.75 1007.67 1007.58 1007.48 1007.39 1007.34
1007.69 1008.02 1008.39 1008.73 1009.01 1009.24 1009.41 1009.54 1009.66 1009.81 1009.97 1010.14 1010.31 1010.46 1010.54 1010.53 1010.44 1010.26 1010.01 1009.71 1009.41 1009.11 1008.84 1008.60 1008.40 1008.23 1008.08 1007.95 1007.85 1007.76 1007.70 1007.67 1007.66 1007.67 1007.69 1007.70 1007.69 1007.65 1007.57 1007.47 1007.35 1007.26 1007.19
1008.63 1008.84 1009.07 1009.30 1009.49 1009.66 1009.81 1009.94 1010.08 1010.23 1010.39 1010.55 1010.69 1010.78 1010.81 1010.75 1010.60 1010.38 1010.10 1009.79 1009.47 1009.15 1008.86 1008.59 1008.35 1008.13 1007.92 1007.74 1007.58 1007.45 1007.35 1007.29 1007.27 1007.28 1007.30 1007.32 1007.32 1007.30 1007.25 1007.18 1007.11 1007.05 1007.03
1009.65 1009.75 1009.87 1009.99 1010.11 1010.24 1010.37 1010.52 1010.67 1010.83 1010.99 1011.11 1011.19 1011.20 1011.13 1010.98 1010.75 1010.46 1010.13 1009.79 1009.45 1009.13 1008.83 1008.56 1008.30 1008.05 1007.81 1007.57 1007.35 1007.16 1006.99 1006.88 1006.80 1006.77 1006.76 1006.77 1006.78 1006.78 1006.78 1006.77 1006.76 1006.77 1006.83
1010.62 1010.61 1010.63 1010.67 1010.75 1010.86 1011.00 1011.17 1011.36 1011.53 1011.67 1011.75 1011.75 1011.67 1011.48 1011.21 1010.88 1010.51 1010.12 1009.75 1009.41 1009.10 1008.82 1008.57 1008.33 1008.09 1007.83 1007.56 1007.29 1007.03 1006.79 1006.58 1006.42 1006.31 1006.24 1006.21 1006.21 1006.22 1006.25 1006.29 1006.35 1006.45 1006.58
1011.43 1011.34 1011.27 1011.26 1011.31 1011.43 1011.60 1011.81 1012.03 1012.22 1012.35 1012.39 1012.31 1012.13 1011.83 1011.44 1011.00 1010.55 1010.11 1009.71 1009.38 1009.11 1008.89 1008.69 1008.51 1008.30 1008.07 1007.80 1007.50 1007.18 1006.85 1006.55 1006.29 1006.07 1005.91 1005.80 1005.75 1005.73 1005.77 1005.83 1005.94 1006.08 1006.27
1012.03 1011.86 1011.74 1011.69 1011.74 1011.87 1012.09 1012.34 1012.60 1012.81 1012.93 1012.94 1012.80 1012.53 1012.13 1011.64 1011.11 1010.60 1010.13 1009.73 1009.43 1009.22 1009.07 1008.97 1008.87 1008.75 1008.57 1008.33 1008.02 1007.66 1007.27 1006.87 1006.49 1006.16 1005.87 1005.65 1005.51 1005.42 1005.40 1005.44 1005.54 1005.69 1005.89
1012.41 1012.19 1012.05 1011.99 1012.04 1012.20 1012.45 1012.74 1013.03 1013.26 1013.38 1013.35 1013.17 1012.83 1012.37 1011.81 1011.23 1010.68 1010.20 1009.83 1009.59 1009.45 1009.40 1009.41 1009.42 1009.39 1009.29 1009.09 1008.81 1008.43 1007.99 1007.50 1007.01 1006.55 1006.13 1005.77 1005.49 1005.30 1005.18 1005.15 1005.19 1005.29 1005.46
1012.65 1012.43 1012.27 1012.21 1012.27 1012.45 1012.72 1013.03 1013.33 1013.56 1013.67 1013.63 1013.41 1013.04 1012.53 1011.95 1011.36 1010.81 1010.35 1010.03 1009.84 1009.79 1009.84 1009.95 1010.07 1010.14 1010.12 1009.99 1009.73 1009.35 1008.87 1008.32 1007.73 1007.15 1006.59 1006.09 1005.67 1005.34 1005.10 1004.95 1004.89 1004.92 1005.01
1012.85 1012.65 1012.51 1012.47 1012.53 1012.71 1012.97 1013.26 1013.54 1013.75 1013.84 1013.77 1013.54 1013.15 1012.64 1012.07 1011.49 1010.97 1010.56 1010.29 1010.17 1010.20 1010.33 1010.53 1010.73 1010.88 1010.93 1010.85 1010.62 1010.24 1009.74 1009.14 1008.48 1007.79 1007.13 1006.50 1005.94 1005.47 1005.11 1004.83 1004.66 1004.58 1004.59
1013.11 1012.95 1012.85 1012.81 1012.88 1013.03 1013.25 1013.50 1013.73 1013.89 1013.93 1013.83 1013.58 1013.19 1012.70 1012.17 1011.63 1011.17 1010.81 1010.61 1010.55 1010.63 1010.82 1011.07 1011.31 1011.51 1011.59 1011.53 1011.33 1010.95 1010.44 1009.81 1009.10 1008.35 1007.60 1006.88 1006.22 1005.64 1005.15 1004.77 1004.49 1004.32 1004.23
1013.48 1013.39 1013.32 1013.30 1013.35 1013.45 1013.61 1013.78 1013.92 1014.00 1013.98 1013.84 1013.57 1013.20 1012.75 1012.26 1011.79 1011.39 1011.11 1010.95 1010.94 1011.05 1011.26 1011.51 1011.76 1011.95 1012.03 1011.97 1011.75 1011.38 1010.86 1010.22 1009.49 1008.71 1007.92 1007.15 1006.43 1005.79 1005.23 1004.77 1004.41 1004.16 1004.00
1013.96 1013.93 1013.90 1013.89 1013.91 1013.95 1014.03 1014.09 1014.14 1014.12 1014.03 1013.84 1013.55 1013.19 1012.78 1012.36 1011.97 1011.64 1011.42 1011.31 1011.33 1011.45 1011.63 1011.86 1012.06 1012.20 1012.23 1012.14 1011.90 1011.52 1010.99 1010.35 1009.63 1008.87 1008.08 1007.31 1006.58 1005.91 1005.33 1004.83 1004.43 1004.13 1003.93
1014.49 1014.52 1014.52 1014.51 1014.49 1014.48 1014.45 1014.42 1014.35 1014.23 1014.06 1013.83 1013.53 1013.19 1012.83 1012.47 1012.16 1011.91 1011.75 1011.69 1011.71 1011.82 1011.96 1012.12 1012.25 1012.31 1012.28 1012.13 1011.85 1011.44 1010.91 1010.29 1009.60 1008.87 1008.12 1007.39 1006.69 1006.05 1005.48 1004.99 1004.58 1004.26 1004.02
1014.97 1015.04 1015.07 1015.05 1015.01 1014.93 1014.83 1014.70 1014.53 1014.33 1014.09 1013.81 1013.51 1013.20 1012.89 1012.61 1012.37 1012.21 1012.10 1012.07 1012.11 1012.18 1012.27 1012.36 1012.40 1012.37 1012.25 1012.03 1011.71 1011.27 1010.75 1010.15 1009.51 1008.83 1008.15 1007.48 1006.85 1006.26 1005.73 1005.26 1004.86 1004.54 1004.29
Thickness
5824 5822 5822 5819 5814 5809 5805 5801 5798 5796 5794 5792 5789 5786 5784 5784 5784 5783 5781 5780 5779 5778 5777 5776 5776 5774 5771 5770 5770 5769 5768 5767 5768 5765 5763 5766 5769 5769 5769 5769 5768 5767 5766
5821 5819 5818 5816 5812 5807 5803 5799 5796 5795 5793 5791 5789 5787 5785 5784 5783 5781 5780 5779 5777 5776 5776 5773 5772 5771 5768 5766 5766 5765 5763 5764 5765 5760 5755 5753 5756 5762 5767 5765 5764 5764 5764
5822 5819 5816 5814 5811 5806 5803 5800 5797 5795 5793 5792 5790 5788 5785 5782 5779 5778 5777 5776 5775 5774 5772 5771 5770 5768 5766 5763 5762 5761 5759 5757 5760 5761 5754 5747 5743 5750 5757 5760 5761 5760 5760
5828 5822 5817 5813 5811 5808 5806 5802 5798 5795 5793 5791 5787 5783 5779 5775 5775 5775 5774 5773 5772 5771 5770 5768 5766 5764 5763 5760 5759 5759 5758 5755 5753 5756 5756 5754 5751 5744 5743 5750 5754 5756 5755
5830 5824 5820 5816 5814 5812 5807 5802 5798 5794 5792 5789 5786 5782 5779 5777 5776 5775 5772 5771 5770 5769 5767 5765 5763 5760 5759 5757 5756 5754 5753 5753 5750 5749 5750 5750 5749 5747 5740 5737 5742 5747 5751
5833 5827 5823 5819 5816 5813 5808 5802 5796 5792 5790 5787 5785 5781 5777 5775 5773 5770 5768 5768 5767 5765 5764 5761 5759 5757 5756 5754 5752 5750 5749 5748 5747 5746 5745 5743 5741 5739 5738 5734 5735 5737 5743
5831 5826 5821 5817 5813 5810 5807 5802 5795 5790 5789 5786 5783 5780 5777 5774 5771 5768 5766 5765 5763 5761 5759 5758 5756 5754 5752 5751 5749 5746 5744 5743 5742 5740 5740 5740 5739 5740 5738 5734 5732 5732 5736
5829 5825 5820 5816 5812 5809 5806 5801 5794 5790 5787 5784 5780 5778 5775 5773 5770 5767 5765 5762 5760 5759 5757 5755 5752 5750 5748 5747 5744 5742 5740 5738 5737 5736 5735 5734 5734 5735 5734 5731 5728 5724 5726
5826 5823 5819 5816 5813 5809 5805 5800 5794 5789 5786 5782 5779 5775 5772 5769 5766 5764 5762 5759 5757 5756 5753 5751 5748 5746 5743 5741 5739 5736 5735 5734 5732 5731 5729 5728 5729 5730 5730 5730 5727 5720 5714
5826 5822 5818 5814 5811 5808 5804 5800 5794 5788 5784 5781 5777 5773 5769 5766 5763 5760 5757 5755 5752 5750 5747 5745 5744 5741 5739 5737 5734 5731 5730 5728 5727 5726 5724 5722 5723 5723 5724 5723 5723 5720 5715
5823 5819 5815 5810 5808 5806 5802 5796 5791 5786 5781 5777 5773 5770 5766 5763 5760 5756 5753 5750 5747 5744 5741 5739 5737 5735 5734 5732 5729 5726 5725 5722 5721 5720 5718 5717 5717 5716 5716 5716 5715 5714 5711
5822 5817 5811 5807 5803 5800 5796 5791 5787 5783 5779 5774 5769 5766 5763 5759 5755 5752 5749 5746 5743 5740 5737 5734 5731 5729 5728 5725 5722 5720 5719 5716 5714 5713 5712 5711 5711 5709 5709 5708 5706 5705 5705
5814 5810 5805 5800 5796 5793 5787 5783 5781 5778 5775 5770 5765 5760 5757 5753 5750 5747 5745 5742 5739 5736 5733 5729 5726 5724 5721 5719 5717 5714 5713 5711 5709 5708 5707 5705 5704 5702 5702 5701 5699 5699 5700
5805 5802 5797 5793 5789 5785 5780 5775 5774 5772 5769 5764 5759 5754 5751 5748 5745 5743 5740 5737 5734 5730 5727 5724 5721 5719 5716 5713 5711 5709 5707 5706 5704 5703 5702 5701 5699 5697 5696 5695 5693 5692 5690
5798 5795 5790 5786 5782 5778 5774 5771 5767 5765 5762 5757 5753 5749 5746 5743 5740 5736 5734 5731 5728 5725 5722 5719 5715 5713 5710 5708 5705 5702 5702 5699 5698 5697 5695 5695 5694 5693 5691 5689 5686 5685 5683
5792 5789 5785 5780 5775 5771 5767 5764 5761 5759 5755 5749 5746 5743 5740 5736 5733 5730 5727 5724 5721 5718 5715 5712 5709 5706 5704 5701 5698 5696 5694 5692 5690 5689 5688 5688 5687 5686 5684 5683 5680 5678 5675
5786 5782 5778 5773 5769 5766 5762 5757 5756 5753 5748 5743 5739 5736 5733 5729 5726 5723 5719 5716 5713 5710 5707 5705 5703 5699 5696 5694 5691 5689 5687 5685 5683 5682 5681 5681 5682 5678 5677 5675 5674 5672 5670
5780 5777 5774 5770 5766 5762 5758 5753 5751 5746 5741 5736 5731 5728 5725 5721 5719 5715 5711 5709 5706 5703 5700 5698 5696 5693 5690 5687 5685 5683 5681 5680 5678 5677 5676 5673 5671 5670 5668 5668 5666 5665 5664
5777 5773 5770 5766 5761 5756 5752 5747 5743 5739 5734 5729 5725 5722 5719 5715 5711 5708 5705 5703 5700 5697 5694 5692 5689 5686 5683 5681 5679 5676 5675 5673 5672 5670 5668 5666 5664 5661 5660 5660 5658 5657 5657
5771 5767 5764 5760 5754 5750 5747 5739 5735 5731 5727 5723 5720 5716 5713 5709 5705 5701 5698 5696 5693 5691 5688 5686 5683 5679 5676 5674 5672 5669 5669 5667 5665 5663 5661 5659 5657 5654 5652 5651 5650 5649 5649
5762 5760 5756 5751 5747 5744 5739 5732 5727 5724 5721 5718 5714 5710 5706 5703 5699 5696 5692 5690 5687 5684 5682 5679 5676 5674 5671 5668 5665 5662 5661 5659 5657 5656 5654 5652 5650 5647 5645 5644 5644 5643 5643
5754 5750 5747 5743 5741 5738 5731 5725 5720 5719 5716 5712 5708 5705 5701 5698 5695 5690 5686 5684 5680 5677 5675 5672 5670 5667 5665 5661 5658 5656 5654 5652 5650 5648 5647 5645 5642 5641 5640 5639 5639 5638 5636
5746 5743 5739 5735 5732 5729 5724 5717 5715 5713 5710 5706 5702 5699 5696 5693 5689 5684 5681 5677 5674 5671 5669 5666 5662 5660 5658 5655 5652 5649 5647 5645 5642 5641 5640 5637 5636 5635 5635 5634 5633 5632 5631
5737 5735 5731 5726 5723 5721 5718 5713 5711 5708 5703 5699 5696 5692 5690 5687 5683 5680 5677 5672 5668 5665 5663 5660 5657 5654 5650 5647 5644 5642 5640 5638 5636 5634 5633 5632 5631 5629 5629 5629 5628 5627 5627
5729 5727 5723 5719 5716 5714 5710 5708 5705 5701 5696 5693 5689 5687 5685 5682 5678 5674 5670 5667 5663 5660 5657 5654 5651 5648 5643 5639 5634 5633 5633 5631 5629 5626 5627 5627 5626 5625 5625 5625 5624 5623 5622
5723 5720 5716 5713 5710 5707 5703 5701 5699 5696 5691 5686 5684 5682 5680 5677 5674 5670 5664 5660 5657 5654 5651 5648 5644 5641 5637 5634 5631 5628 5626 5625 5622 5621 5622 5622 5621 5620 5619 5619 5618 5617 5615